Location: Unspecified
(0.0000°N, 0.0000°E)
Time: 14:14:33
(UTC+00:00)

Vanguard 2 - Pass Details

Date: 22 September 2019
Orbit: 554 x 2937 km, 32.9° (Epoch: 13 October)

Event Time Altitude Azimuth Distance (km) Brightness Sun altitude
Rises 10:07:39 0° 317° (NW) 2,953 10.4 63.7°
Reaches altitude 10° 10:10:14 10° 326° (NW) 1,906 9.5 64.3°
Maximum altitude 10:14:03 36° 34° (NE) 878 8.7 65.3°
Drops below altitude 10° 10:17:47 10° 103° (ESE) 1,874 10.1 66.2°
Sets 10:20:18 0° 111° (ESE) 2,895 10.8 66.9°
